DW8522 Weather Reports


Display with metric or nautical units.
time (UTC)temp
F
wind
direction
speed
MPH
gust
MPH
rain 1hr
in
rain 24hr
in
rain mn
in
humidity
%
barometer
mb
20260903161558 59 300 4.0 8.0 0.00 0.02 0.00 86 1016.0
20260903160059 59 26 4.0 12.0 0.00 0.02 0.00 86 1015.9
20260903154558 59 315 4.0 12.0 0.00 0.02 0.00 86 1015.8
20260903153056 59 207 2.0 10.0 0.00 0.02 0.00 87 1015.9
20260903151554 59 139 2.0 7.0 0.00 0.02 0.00 87 1015.9
20260903150054 59 238 3.0 8.0 0.00 0.02 0.00 86 1016.0
20260903144551 60 252 3.0 7.0 0.00 0.02 0.00 87 1016.1
20260903143105 60 284 5.0 14.0 0.00 0.02 0.00 87 1016.2
20260903141545 60 317 5.0 10.0 0.00 0.02 0.00 88 1016.5
20260903140041 60 276 3.0 8.0 0.00 0.02 0.00 88 1016.5
20260903134540 60 259 3.0 10.0 0.00 0.02 0.00 89 1016.6
20260903133039 59 288 2.0 9.0 0.00 0.02 0.00 89 1016.6
20260903131543 59 342 4.0 10.0 0.00 0.02 0.00 90 1016.8
20260903130034 59 308 2.0 7.0 0.00 0.02 0.00 92 1016.8
20260903124534 59 337 2.0 5.0 0.00 0.02 0.00 92 1016.7
20260903123037 59 348 1.0 6.0 0.00 0.02 0.00 91 1016.7
20260903121533 59 91 1.0 4.0 0.00 0.02 0.00 91 1016.7
20260903120024 59 99 0.0 4.0 0.00 0.02 0.00 90 1016.9
20260903114525 59 20 1.0 5.0 0.01 0.02 0.02 90 1017.0
20260903113034 59 353 2.0 5.0 0.01 0.02 0.02 90 1017.2
20260903111521 58 285 3.0 8.0 0.02 0.02 0.02 91 1017.3
20260903110019 58 319 3.0 10.0 0.02 0.02 0.02 92 1017.4
20260903104518 57 328 1.0 4.0 0.01 0.01 0.01 92 1017.6
20260903103018 57 107 0.0 4.0 0.01 0.01 0.01 91 1017.5
20260903101522 57 89 1.0 4.0 0.00 0.00 0.00 91 1017.6
20260903100021 57 5 1.0 5.0 0.00 0.00 0.00 91 1017.8
20260903094516 57 100 1.0 5.0 0.00 0.00 0.00 91 1017.8
20260903093015 58 128 1.0 8.0 0.00 0.00 0.00 91 1018.0
20260903091519 57 90 1.0 4.0 0.00 0.00 0.00 89 1017.9
20260903090014 57 115 1.0 4.0 0.00 0.00 0.00 89 1017.9
20260903084520 57 86 2.0 5.0 0.00 0.00 0.00 88 1017.9
20260903083014 57 86 1.0 6.0 0.00 0.00 0.00 88 1017.9
20260903081515 56 103 1.0 2.0 0.00 0.00 0.00 88 1017.9
20260903080012 56 111 0.0 2.0 0.00 0.00 0.00 88 1018.1
20260903074512 56 179 0.0 2.0 0.00 0.00 0.00 88 1018.0
20260903073011 56 252 0.0 3.0 0.00 0.00 0.00 88 1018.0
20260903071509 56 224 0.0 3.0 0.00 0.00 0.00 87 1017.9
20260903070009 56 214 2.0 4.0 0.00 0.00 0.00 87 1017.9
20260903064508 56 164 1.0 4.0 0.00 0.00 0.00 85 1017.8
20260903063007 57 294 1.0 7.0 0.00 0.00 0.00 81 1017.8
20260903061506 58 245 4.0 8.0 0.00 0.00 0.00 79 1017.7
20260903060005 59 238 3.0 8.0 0.00 0.00 0.00 76 1017.7
20260903054505 60 250 3.0 8.0 0.00 0.00 0.00 72 1017.6
20260903053004 60 252 3.0 7.0 0.00 0.00 0.00 72 1017.5
20260903051503 61 193 4.0 11.0 0.00 0.00 0.00 72 1017.4
20260903050003 62 250 6.0 11.0 0.00 0.00 0.00 70 1017.3
20260903044507 62 201 4.0 10.0 0.00 0.00 0.00 69 1017.4
20260903043000 62 257 3.0 9.0 0.00 0.00 0.00 70 1017.5
20260903041615 62 198 4.0 11.0 0.00 0.00 0.00 69 1017.5
20260903040059 63 248 4.0 14.0 0.00 0.00 0.00 69 1017.5
20260903034602 63 221 4.0 14.0 0.00 0.00 0.00 68 1017.6
20260903033057 64 281 3.0 9.0 0.00 0.00 0.00 68 1017.5
20260903031556 65 215 3.0 11.0 0.00 0.00 0.00 66 1017.6
20260903030055 65 313 2.0 7.0 0.00 0.00 0.00 66 1017.7
20260903024554 65 144 3.0 9.0 0.00 0.00 0.00 66 1017.8
20260903023115 64 252 3.0 13.0 0.00 0.00 0.00 65 1017.9
20260903021550 64 224 2.0 10.0 0.00 0.00 0.00 62 1017.9
20260903020055 64 197 4.0 13.0 0.00 0.00 0.00 62 1018.0
20260903014548 66 266 5.0 10.0 0.00 0.00 0.00 58 1018.2
20260903013049 65 245 5.0 10.0 0.00 0.00 0.00 61 1018.3
20260903011544 63 116 4.0 12.0 0.00 0.00 0.00 65 1018.4
20260903010041 64 229 3.0 9.0 0.00 0.00 0.00 63 1018.7
20260903004540 66 295 3.0 7.0 0.00 0.00 0.00 63 1018.8
20260903003038 65 142 4.0 9.0 0.00 0.00 0.00 62 1019.1
20260903001536 64 215 3.0 8.0 0.00 0.00 0.00 68 1019.1
20260903000036 63 287 3.0 8.0 0.00 0.00 0.00 66 1019.3
20260902234534 64 152 3.0 9.0 0.00 0.00 0.00 64 1019.6
20260902233030 63 172 1.0 5.0 0.00 0.00 0.00 72 1019.7
20260902231530 61 177 1.0 6.0 0.00 0.00 0.00 75 1019.8
20260902230026 60 152 2.0 7.0 0.00 0.00 0.00 74 1020.1
20260902224524 60 158 1.0 7.0 0.00 0.00 0.00 76 1020.1
20260902223029 60 285 2.0 4.0 0.00 0.00 0.00 77 1020.3
20260902221527 60 113 1.0 5.0 0.00 0.00 0.00 77 1020.4
20260902220029 61 291 2.0 6.0 0.00 0.00 0.00 77 1020.3
20260902214520 61 102 1.0 6.0 0.00 0.00 0.00 79 1020.3
20260902213017 59 158 0.0 5.0 0.00 0.00 0.00 81 1020.1
20260902211514 58 108 1.0 3.0 0.00 0.00 0.00 82 1020.1
20260902210018 57 324 1.0 6.0 0.00 0.00 0.00 84 1020.3
20260902204511 57 166 1.0 8.0 0.00 0.00 0.00 85 1020.3
20260902203007 56 271 1.0 4.0 0.00 0.00 0.00 86 1020.4
20260902201516 55 181 1.0 4.0 0.00 0.00 0.00 85 1020.4
20260902200005 54 328 1.0 4.0 0.00 0.00 0.00 84 1020.4
20260902194503 54 120 0.0 2.0 0.00 0.00 0.00 83 1020.3
20260902193002 54 163 0.0 1.0 0.00 0.00 0.00 82 1020.1
20260902191601 54 198 0.0 3.0 0.00 0.00 0.00 82 1019.9
20260902190059 53 161 0.0 3.0 0.00 0.00 0.00 82 1019.7
20260902184558 53 210 0.0 4.0 0.00 0.00 0.00 82 1019.6
20260902183057 53 146 2.0 5.0 0.00 0.00 0.00 83 1019.4
20260902181557 53 195 0.0 2.0 0.00 0.00 0.00 83 1019.2
20260902180057 52 176 0.0 2.0 0.00 0.00 0.00 83 1019.3
20260902174555 53 181 0.0 3.0 0.00 0.00 0.00 82 1019.2
20260902173055 52 139 0.0 2.0 0.00 0.00 0.00 83 1019.2
20260902171605 52 180 0.0 6.0 0.00 0.00 0.00 84 1019.2
20260902170053 52 134 0.0 1.0 0.00 0.00 0.00 84 1019.0
20260902164551 52 131 0.0 1.0 0.00 0.00 0.00 85 1019.2
20260902163053 52 131 0.0 1.0 0.00 0.00 0.00 86 1019.0